ROMMA est une association bénévole à but non lucratif. Votre soutien est indispensable : ADHERER à ROMMA ou FAIRE un DON

Tourrette-Levens - (06, Alpes-Maritimes)

Côte-d'Azur (416 m)   Longitude: 07° 16' 12" E   Latitude: 43° 47' 24" N Station partenaire n°152
 

Détail journalier du     <<     >>

Température Precipitation Humidité Pression Vent Dir Rafale Dir. rafale Ensol.
Heure (°C) (mm) (%) (hPa) (km/h) (km/h) (min)
01:00 10.805910281SSO6ONO0
02:00 10.90551028000
03:00 10.605710271SSE6SSE0
04:00 10.405310271O6O0
05:00 10.505010271SO5SO0
06:00 9.5057102702SO0
07:00 8.80621027000
08:00 10.80611027000
09:00 14.6047102703ENE42
10:00 17.505010272ENE10ESE59
11:00 18.204510275SE19SE45
12:00 19.504210265SSE18SSE60
13:00 19.903810258SE24ESE58
14:00 20.203410259ESE29ESE60
15:00 19.5032102414SE37SE56
16:00 18.2033102413SSE35SSE27
17:00 17.7037102411SE35ESE7
18:00 17.203810246SE31SSE0
19:00 16.804010236SSE18ENE0
20:00 14.504910232NO8NNO0
21:00 13.405110231OSO5NO0
22:00 13.705010232OSO10O0
23:00 16.203810232OSO11ESE0
minuit 16.503610233S19NO0

Graphique du 20-04-2019

 

Serveur OMMA